Regional Weather Roundup
Issued by NWS Wakefield, VA

Home | Current Version | Previous Version | Graphics & Text | Print | Product List | Glossary On
Versions: 1 2 3 4 5 6 7 8 9 10 11 12 13 14 15 16 17 18 19 20 21 22 23 24 25 26 27 28 29 30 31 32 33 34 35 36 37 38 39 40 41 42 43 44 45 46 47 48 49 50
000
ASUS41 KAKQ 192010
RWRAKQ

REGIONAL WEATHER ROUNDUP
NATIONAL WEATHER SERVICE WAKEFIELD VA
300 PM EST FRI DEC 19 2014

Note: "fair" indicates few or no clouds below 12,000 feet with no
significant weather and/or obstructions to visibility. * = Denotes
station may not report precipitation (e.g., rain,snow,etc.),
thunder or fog.

VAZ042-051-052>054-056-192100-
NORTHERN VIRGINIA

CITY           SKY/WX    TMP DP  RH WIND       PRES   REMARKS
WASH NATIONAL  PTSUNNY   42  23  46 NW13      30.16R
DULLES         PTSUNNY   37  22  54 NW15      30.15R
FORT BELVOIR   PTSUNNY   40  23  50 W12       30.16R
QUANTICO       CLOUDY    40  23  50 N16G26    30.17R
FREDERICKSBRG* SUNNY     43  26  50 N10G16    30.15R
STAFFORD*      SUNNY     40  23  50 N13       30.20R
WARRENTON      MOSUNNY   42  30  64 NW10G17   30.15S
CULPEPER*      SUNNY     43  25  49 N8        30.16R
MANASSAS*      CLOUDY    39  25  56 NW10      30.16R
LEESBURG*      CLOUDY    37  28  70 NW13G18   30.16R
WINCHESTER     CLOUDY    36  19  51 NW13G21   30.16R
FRONT ROYAL*   CLOUDY    36  25  64 NW9       30.15R
LURAY*         CLOUDY    39  27  60 NW3       30.16R
$$

VAZ048-049-060>072-079>083-192100-
CENTRAL AND SOUTH CENTRAL VIRGINIA

CITY           SKY/WX    TMP DP  RH WIND       PRES   REMARKS
RICHMOND       MOSUNNY   46  24  42 NW6       30.14R
CHESTERFIELD*  CLEAR     46  21  36 NW8       30.15R
PETERSBURG*    SUNNY     47  24  40 NW5       30.14R
HANOVER        SUNNY     44  24  45 W9        30.16R
TAPPAHANNOCK*  SUNNY     42  20  41 N9        30.15R
QUINTON*       CLEAR     43  25  49 NW7       30.14R
CHARLOTTSVILLE SUNNY     44  23  43 VRB6      30.12R
GORDONSVILLE*  CLEAR     43  24  48 N3        30.13R
ORANGE*        SUNNY     43  27  52 N3        30.15R
LOUISA*        SUNNY     45  27  49 N3        30.12R
BUMPASS*       CLEAR     42  25  50 CALM      30.14R
FARMVILLE*     SUNNY     53  26  34 CALM      30.12R
CREWE*         CLEAR     46  24  41 NW3       30.13R
FORT PICKETT*  CLEAR     46  24  43 CALM      30.13R
CHASE CITY*    CLEAR     47  28  47 CALM      30.13R
CLARKSVILLE*   CLEAR     46  27  46 CALM      30.13R
SOUTH HILL*    SUNNY     46  26  47 W3        30.18R
LAWRENCEVILLE* CLEAR     47  28  47 CALM      30.13R
EMPORIA*       SUNNY     45  28  53 NW3       30.16R
$$

VAZ088>098-192100-
SOUTHEAST VIRGINIA

CITY           SKY/WX    TMP DP  RH WIND       PRES   REMARKS
NORFOLK        SUNNY     43  26  51 N7        30.13R
VIRGINIA BEACH MOSUNNY   45  28  51 N10       30.13R
NORFOLK NAVAL  MOSUNNY   46  28  49 N7        30.15R
WEST POINT*    SUNNY     47  22  38 N6        30.16R
SALUDA*        FAIR      42  26  53 NW8       30.13R
NEWPORT NEWS   SUNNY     48  26  42 N6        30.13R
LANGLEY AFB      N/A     45  25  46 N8        30.14R
FORT EUSTIS    SUNNY     44  26  49 VRB3      30.12R
WILLIAMSBURG*  SUNNY     48  28  46 CALM      30.14R
HR EXEC AP*    CLEAR     45  27  49 N3        30.16R
FRANKLIN*      SUNNY     46  27  46 N5        30.14R
WAKEFIELD      SUNNY     46  25  43 NW3       30.14R
$$

VAZ020-022-025-037-045-192100-
WEST CENTRAL AND SOUTHWEST VIRGINIA

CITY           SKY/WX    TMP DP  RH WIND       PRES   REMARKS
STAUNTON*      SUNNY     39  23  52 NE10      30.13S
WAYNESBORO*    CLEAR     38  25  57 N8        30.10R
HOT SPRINGS VA SUNNY     33  22  64 W15       30.01R WCI  23
LYNCHBURG      SUNNY     45  24  43 CALM      30.12S
DANVILLE       MOSUNNY   50  25  37 N3        30.13R
SOUTH BOSTON*  CLEAR     49  24  37 CALM      30.13R
MARTINSVILLE   MOSUNNY   50  25  37 N7        30.14R
ROANOKE        PTSUNNY   46  24  42 NW8       30.13S
BLACKSBURG     PTSUNNY   38  24  56 W6        30.14R
DUBLIN*        PTSUNNY   43  27  54 W7        30.12S
MARION*        PTSUNNY   41  22  46 NW9       30.13S
HILLSVILLE*    PTSUNNY   40  23  51 NW10G16   30.08S
RICHLANDS*     CLOUDY    37  21  54 CALM      30.12S
WISE*          CLOUDY    37  25  60 NW3       30.14S
ABINGDON*      CLOUDY    42  23  45 N5        30.13F
$$

MDZ021>025-VAZ099-100-192100-
SOUTHERN MARYLAND AND THE DELMARVA PENINSULA

CITY           SKY/WX    TMP DP  RH WIND       PRES   REMARKS
PATUXENT RIVER PTSUNNY   39  24  55 NW13      30.13R
BAY BRIDGE APT   N/A     39  25  56 NW12      30.13R
LEONARDTOWN    CLOUDY    37  23  56 NW8       30.15R
DOVER          PTSUNNY   40  25  54 W15       30.07S
GEORGETOWN     CLOUDY    39  23  52 N12G17    30.10S
EASTON         CLOUDY    39  27  60 NW12G23   30.16R
CAMBRIDGE      NOT AVBL
SALISBURY      CLOUDY    40  25  55 NW12      30.12R
OCEAN CITY     CLOUDY    38  25  59 NW9G17    30.10S
WALLOPS ISLAND CLOUDY    38  26  62 NW9       30.13R
ACCOMACK*      CLOUDY    37  27  65 NW12G18   30.13R
$$

NCZ012>017-030>032-192100-
NORTH CENTRAL AND EASTERN NORTH CAROLINA

CITY           SKY/WX    TMP DP  RH WIND       PRES   REMARKS
ROANOKE RAPIDS CLEAR     45  28  53 NW5       30.14R
RALEIGH        PTSUNNY   52  25  35 W6        30.13R
ELIZABETH CITY SUNNY     50  28  42 CALM      30.12S
AHOSKIE*       SUNNY     45  27  49 N3        30.14R
EDENTON*       SUNNY     47  29  50 N5        30.12S
CURRITUCK*     SUNNY     45  26  46 N6        30.13R
KILL DEVIL HLS SUNNY     43  31  64 N6        30.12R
MANTEO         SUNNY     43  32  64 N8        30.13R
CAPE HATTERAS  SUNNY     47  34  60 NE6       30.12R
TARBORO*       CLEAR     48  28  46 CALM      30.14
GOLDSBORO      SUNNY     53  31  44 NW1       30.11R
WASHINGTON     SUNNY     49  28  44 N5        30.13R
GREENVILLE     SUNNY     48  30  49 CALM      30.14R
NEW BERN       SUNNY     54  29  38 N7        30.12R
WILMINGTON     SUNNY     60  26  27 NW7       30.11R
$$

VAZ048-192100-
ELSEWHERE

CITY           SKY/WX    TMP DP  RH WIND       PRES   REMARKS
HARRISBURG PA  MOSUNNY   39  21  48 NW12      30.10R
BALTIMORE      PTSUNNY   41  23  48 N13       30.12R
ANNAPOLIS      PTSUNNY   40  24  53 NW10      30.13R
ANDREWS AFB    CLOUDY    38  23  54 NW13      30.13R
PHILADELPHIA   MOSUNNY   42  22  44 NW15      30.09R
HENDERSON NC     N/A    N/A N/A N/A MISG      30.13
GREENSBORO     PTSUNNY   52  23  32 W3        30.10S
ROCKY MOUNT    SUNNY     50  27  40 NW7       30.13R
$$

VAZ100-192100-
MARINE

STATION/POSITION TIME  TEMP    WIND        PRES    WAVE   SWELL
                       AIR SEA DIR/SP/G            HT/PER HT/PER
                 (UTC) (F)     (DEG/KT/KT) (MB)    (FT/S) (FT/S)
CAPE MAY NJ      2000   39 41  320/ 14/ 18 1017.8F
LEWES DE         2000   39 42  320/ 16/ 18 1018.5F
15NM E FENWICK I 2000   39 47              1018.3S   4/ 5
OCEAN-CITY-INLET 2000   38 43  330/ 12/ 14 1018.7S
WACHAPREAGUE VA  2000   39 43  310/  5/ 14 1019.9F
THOMAS POINT MD  2000   38 42  300/ 11/ 12 1021.6R
GOOSES REEF MD   2000   38     VRB 14/ 17  1019.5R
COVE POINT MD    2000   37     340/ 15/ 19 1020.2R
SOLOMONS ISLAND  2000      43                N/A
BISHOPS HEAD MD  2000   38 38  310/ 13/ 15 1020.0R
PINEY POINT MD   2000          340/ 14/ 15   N/A
POTOMAC MD       2000   38     320/ 12/ 16 1019.7R
CAMBRIDGE MD     2000   38 40  310/ 10/ 15 1020.3R
LEWISETTA VA     2000   38 42  330/  9/ 12 1020.6R
RAPPAHANNOCK LGT 2000          340/ 17/ 19 1020.7R
STINGRAY PT      2000   41     340/  8/ 10 1020.7R
YORK RVR RNG VA  2000   42      20/  6/  8 1019.5S
YORKTOWN VA      2000   42 45  320/ 11/ 12 1019.9S
JAMESTOWN VA     2000   42     300/  4/  6   N/A
DOMINION TERM VA 2000   43     310/ 11/ 12 1020.1R
KIPTOPEKE VA     2000      50   10/ 11/ 15   N/A
CHES BAY BRIDGE  2000   40 46  350/ 10/ 12 1019.7R
CAPE HENRY VA    2000   40     340/ 10/ 12 1018.8R
CHESAPEAKE LGHT  1900   39     350/ 12/ 16 1020.4F
WILLOUBY STN VA  2000   41      50/  6/  6 1020.6R
S CRANEY ISL VA  2000          300/  7/ 10 1020.2R
CAPE HENRY BUOY  2000      48                N/A     3/ 5
1ST LANDING BUOY 2000   41      10/ 12/ 14 1019.6S
CAPE CHARLES BUO 2000      48                N/A     3/ 4   2/11
64NM E OF VA BCH 2000   42 54  330/ 16/ 19 1018.8R   4/ 5
DUCK PIER NC     2000   41 47   20/ 12/ 15 1019.1R
44100 DUCK FRF   2000      51                N/A     4/ 5
44056 DUCK FRF   2000      48                N/A     3/ 5
OREGON INLET NC  2000   44 50  360/  8/ 12 1019.9R
HATTERAS NC      2000   46 53   20/  7/  9 1020.2R
DIAMOND SHLS NC  2000   48                 1020.0R   3/ 8
CAPE LOOKOUT NC  1900   51      30/  6/  7 1019.3F
$$



USA.gov is the U.S. government's official web portal to all federal, state and local government web resources and services.